This demonstration page uses our WeatherBlox Daily Observations layout. Learn more.

Left ArrowRight Arrow

Hourly Observations for July 15, 2018

Temp ( °F °C ) Dew Point ( °F °C ) Humidity (%) Winds ( mph kmh ) Pressure ( in mb ) Visibility ( mi km ) Precip ( " mm )
12:53 am 00:53 Clear 79 26.1 59 15 50 50 SSE 7 11 29.89 1012 10 16 0.00 0.00
1:53 am 01:53 Clear 80 26.7 58 14.4 47 47 SSE 7 11 29.89 1012 10 16 0.00 0.00
2:53 am 02:53 Clear 77 25 59 15 54 54 S 3 6 29.88 1012 10 16 0.00 0.00
3:53 am 03:53 Clear 77 25 59 15 54 54 SE 5 7 29.87 1012 10 16 0.00 0.00
4:53 am 04:53 Clear 78 25.6 59 15 52 52 SE 7 11 29.87 1011 10 16 0.00 0.00
5:53 am 05:53 Cloudy with Light Rain 73 22.8 63 17.2 71 71 SE 8 13 29.88 1012 9 14 0.00 0.03
6:53 am 06:53 Mostly Cloudy 73 22.8 63 17.2 71 71 ESE 8 13 29.88 1012 10 16 0.00 0.03
7:53 am 07:53 Mostly Cloudy 71 21.7 65 18.3 81 81 ENE 8 13 29.91 1013 10 16 0.00 0.03
8:53 am 08:53 Mostly Cloudy with Light Rain 72 22.2 67 19.4 84 84 E 8 13 29.92 1013 10 16 0.00 0.03
9:53 am 09:53 Cloudy with Light Rain 74 23.3 68 20 82 82 ESE 16 26 29.93 1013 10 16 0.00 0.03
10:53 am 10:53 Partly Cloudy 78 25.6 69 20.6 74 74 SSE 6 9 29.92 1013 10 16 0.00 0.03
11:53 am 11:53 Sunny 81 27.2 67 19.4 62 62 SE 5 7 29.93 1014 10 16 0.00 0.00
12:53 pm 12:53 Sunny 87 30.6 67 19.4 51 51 SE 8 13 29.92 1013 10 16 0.00 0.00
1:53 pm 13:53 Sunny 92 33.3 65 18.3 41 41 E 14 22 29.88 1012 10 16 0.00 0.00
2:53 pm 14:53 Sunny 94 34.4 61 16.1 33 33 E 15 24 29.85 1011 10 16 0.00 0.00
3:53 pm 15:53 Sunny 96 35.6 57 13.9 27 27 VRB 7 11 29.82 1010 10 16 0.00 0.00
4:53 pm 16:53 Sunny 96 35.6 57 13.9 27 27 SSE 10 17 29.80 1009 10 16 0.00 0.00
5:53 pm 17:53 Sunny 96 35.6 56 13.3 26 26 ESE 12 19 29.79 1009 10 16 0.00 0.00
6:53 pm 18:53 Sunny 97 36.1 55 12.8 24 24 ESE 14 22 29.78 1009 10 16 0.00 0.00
7:53 pm 19:53 Partly Cloudy 89 31.7 60 15.6 38 38 SSW 22 35 29.82 1010 10 16 0.00 0.00
8:01 pm 20:01 Mostly Cloudy 88 31.1 61 16.1 40 40 S 22 35 29.74 1007 10 16 0.00 0.00
8:21 pm 20:21 Cloudy with Thunderstorms 85 29.4 61 16.1 45 45 S 21 33 29.80 1009 10 16 0.00 0.00
8:36 pm 20:36 Cloudy with Nearby Thunderstorms 84 28.9 62 16.7 48 48 SSW 20 31 29.80 1009 10 16 0.00 0.00
8:53 pm 20:53 Partly Cloudy 84 28.9 61 16.1 46 46 WSW 14 22 29.88 1012 10 16 0.00 0.00
9:53 pm 21:53 Cloudy 76 24.4 67 19.4 74 74 SW 10 17 29.90 1012 10 16 0.00 0.00
10:53 pm 22:53 Clear 74 23.3 69 20.6 85 85 S 9 15 29.92 1013 10 16 0.00 0.00
11:53 pm 23:53 Clear 75 23.9 68 20 79 79 SSW 3 6 29.92 1013 10 16 0.00 0.00

Powered by AerisWeather